COSMOS 1275 DEB, 12781

Orbit data source: Space-Track

COSMOS 1275 DEB, 12781 is space debris in LEO originally from a launch on Thu, 04 Jun 1981 UTC launched from the Plesetsk Missile And Space Complex (PKMTR). Debris objects in space refer to the collection of defunct objects orbiting the Earth. Examples of debris include non-operational satellites, rocket bodies, and fragments generated from explosions, collisions, or faulty payload assembly.

Loading next visibility...
Identifier
12781, 1981-053DX
Orbit
LEO
Country
Flag of CISCIS
Related business
Manufacturer
Unknown
Mission
Spacecraft
Bus & Motor
Unknown
Mass
Unknown
Launch date (UTC)
1981-06-04 (45 years ago)
Launch vehicle
Unknown
Launch site
Plesetsk Missile And Space Complex (PKMTR)
Object type
Payload
Rocket body
Debris
Shape & HBR
Unknown shape, 0.1 m
Radar Cross Section
Small (<0.1 m²)

Expand to show TLE details & history
Last TLE update: 6 hours ago

TLE from 6 hours ago
0 COSMOS 1275 DEB
1 12781U 81053DX  26036.43525106  .00001734  00000-0  14849-2 0  9992
2 12781  83.1673  37.0519 0071297  32.0057 120.5312 13.85225347230691
Epoch: 2026-02-05T10:26Z
TLE epoch observation values (Epoch: 2026-02-05T10:26:45.691Z)
Latitude
26.59248°
Longitude
-78.64693°
Altitude
975.467 km
Speed
7.353 km/s
True Right ascension
14h 14m 31s
True Declination
26° 27' 33"
Sunlit
Object was in daylight at epoch
Visualization orbit readout
Latitude
Unknown
Longitude
Unknown
Altitude
Unknown
Speed
Unknown
Apparent Right ascension
Unknown
Apparent Declination
Unknown
Sunlit
N/A
Visualization observer readout
Local Sidereal Time
18:13:42
Azimuth
Unknown
Elevation
Unknown
Doppler factor
Unknown
Orbital elements
Apogee altitude
994.732 km
Perigee altitude
890.343 km
Semi-major axis
7,320.674 km
Eccentricity
0.00713
Inclination
83.1673°
RAAN
37.0519°
Arg. of periapsis
32.0057°
True anomaly
121.23174°
Mean anomaly
120.5312°
Eccentric anomaly
120.88179°
Mean motion
3.46511 °/min
Orbital period
103.89 mins
BSTAR
0.0014849
Loading maneuver chart data...
Computing Atmospheric mass density...

Documentation

Showing up to 5 results
|